CW9192 Weather Reports


time (UTC)temp
C
wind
direction
speed
KPH
gust
KPH
rain 1hr
cm
rain 24hr
cm
rain mn
cm
humidity
%
barometer
mb
20260507031103 4 237 1.6 6.4 0.00 0.00 0.00 89 1010.0
20260507030600 4 268 1.6 6.4 0.00 0.00 0.00 89 1009.9
20260507030107 4 265 1.6 6.4 0.00 0.00 0.00 89 1009.7
20260507025559 4 274 1.6 6.4 0.00 0.00 0.00 89 1009.7
20260507025059 4 280 1.6 6.4 0.00 0.00 0.00 89 1009.8
20260507024612 4 268 1.6 6.4 0.00 0.00 0.00 89 1009.9
20260507024102 4 278 0.0 6.4 0.00 0.00 0.00 89 1009.9
20260507023604 4 324 1.6 6.4 0.00 0.00 0.00 89 1010.0
20260507023057 4 0 1.6 9.7 0.00 0.00 0.00 89 1010.0
20260507022559 4 267 4.8 9.7 0.00 0.00 0.00 89 1010.1
20260507022059 4 304 0.0 4.8 0.00 0.00 0.00 89 1010.0
20260507021616 4 323 1.6 6.4 0.00 0.00 0.00 89 1010.1
20260507021101 4 274 3.2 6.4 0.00 0.00 0.00 89 1010.1
20260507020559 4 294 0.0 6.4 0.00 0.00 0.00 89 1010.1
20260507020106 4 0 0.0 6.4 0.00 0.00 0.00 89 1010.0
20260507015601 4 0 3.2 8.0 0.00 0.00 0.00 89 1010.0
20260507015103 4 241 3.2 8.0 0.00 0.00 0.00 89 1010.0
20260507014616 4 250 1.6 8.0 0.00 0.00 0.00 89 1010.0
20260507014059 4 276 1.6 6.4 0.00 0.00 0.00 89 1009.9
20260507013559 5 0 0.0 6.4 0.00 0.00 0.00 89 1009.8
20260507013100 5 0 0.0 6.4 0.00 0.00 0.00 89 1010.0
20260507012607 5 267 0.0 6.4 0.00 0.00 0.00 89 1010.0
20260507012100 5 289 3.2 8.0 0.00 0.00 0.00 89 1010.0
20260507011559 5 247 1.6 8.0 0.00 0.00 0.00 89 1010.0
20260507011100 5 0 3.2 11.3 0.00 0.00 0.00 89 1010.0
20260507010602 5 253 3.2 11.3 0.00 0.00 0.00 88 1009.9
20260507010115 5 246 1.6 6.4 0.00 0.00 0.00 89 1009.7
20260507005600 5 216 1.6 3.2 0.00 0.00 0.00 89 1009.4
20260507005101 5 28 0.0 4.8 0.00 0.00 0.00 89 1009.2
20260507004558 5 0 1.6 4.8 0.00 0.00 0.00 88 1009.3
20260507004059 5 288 1.6 4.8 0.00 0.00 0.00 88 1009.4
20260507003559 5 0 1.6 4.8 0.00 0.00 0.00 88 1009.4
20260507003056 5 285 0.0 4.8 0.00 0.00 0.00 88 1009.3
20260507002558 5 0 0.0 9.7 0.00 0.00 0.00 88 1009.3
20260507002059 5 0 1.6 12.9 0.00 0.00 0.00 87 1009.1
20260507001605 5 344 4.8 12.9 0.00 0.00 0.00 88 1009.2
20260507001101 5 0 1.6 8.0 0.00 0.00 0.00 88 1009.2
20260507000559 5 11 1.6 12.9 0.00 0.00 0.00 88 1009.2
20260507000056 6 295 3.2 12.9 0.00 0.00 0.00 88 1009.3
20260506235600 6 335 3.2 14.5 0.00 0.00 0.00 88 1009.2
20260506235058 6 242 3.2 14.5 0.00 0.00 0.00 88 1009.2
20260506234559 6 262 1.6 12.9 0.00 0.00 0.00 88 1009.1
20260506234059 6 269 4.8 12.9 0.00 0.00 0.00 88 1009.0
20260506233559 6 265 3.2 8.0 0.00 0.00 0.00 88 1009.1
20260506233059 6 321 3.2 12.9 0.00 0.00 0.00 88 1009.1
20260506232558 6 0 3.2 17.7 0.00 0.00 0.00 88 1009.0
20260506232059 6 241 4.8 17.7 0.00 0.00 0.00 88 1009.0
20260506231559 6 5 3.2 12.9 0.00 0.00 0.00 88 1009.0
20260506231059 6 271 4.8 9.7 0.00 0.00 0.00 88 1009.0
20260506230600 6 271 1.6 8.0 0.00 0.00 0.00 88 1008.9
20260506230105 6 292 3.2 8.0 0.00 0.00 0.00 88 1008.7
20260506225559 6 289 0.0 6.4 0.00 0.00 0.00 89 1008.7
20260506225059 6 285 1.6 8.0 0.00 0.00 0.00 89 1008.5
20260506224601 6 0 1.6 8.0 0.00 0.00 0.00 89 1008.4
20260506224101 6 298 3.2 8.0 0.00 0.00 0.00 89 1008.3
20260506223559 6 332 4.8 8.0 0.00 0.00 0.00 89 1008.1
20260506223057 6 352 0.0 9.7 0.00 0.00 0.00 89 1008.1
20260506222559 6 298 3.2 9.7 0.00 0.00 0.00 89 1008.2
20260506222059 6 283 1.6 9.7 0.00 0.00 0.00 89 1008.3
20260506221600 6 302 1.6 4.8 0.00 0.00 0.00 89 1008.1
20260506221101 6 0 1.6 4.8 0.00 0.00 0.00 89 1008.0
20260506220559 6 289 0.0 8.0 0.00 0.00 0.00 89 1008.0
20260506220057 6 288 1.6 8.0 0.00 0.00 0.00 89 1007.8
20260506215558 6 309 1.6 8.0 0.00 0.00 0.00 89 1007.9
20260506215058 6 332 3.2 8.0 0.00 0.00 0.00 89 1007.8
20260506214557 6 329 1.6 6.4 0.00 0.00 0.00 90 1007.8
20260506214059 6 15 3.2 8.0 0.00 0.00 0.00 90 1007.8
20260506213559 6 360 3.2 12.9 0.00 0.00 0.00 90 1007.7
20260506213059 6 282 3.2 12.9 0.00 0.00 0.00 90 1007.8
20260506212559 6 334 1.6 11.3 0.00 0.00 0.00 90 1007.8
20260506212059 6 318 3.2 12.9 0.00 0.00 0.00 90 1007.7
20260506211558 6 325 3.2 12.9 0.00 0.00 0.00 90 1007.7
20260506211059 6 296 4.8 12.9 0.00 0.00 0.00 90 1007.7
20260506210559 6 294 3.2 11.3 0.00 0.00 0.00 90 1007.6
20260506210100 6 342 3.2 11.3 0.00 0.00 0.00 90 1007.6
20260506205603 6 275 1.6 8.0 0.00 0.00 0.00 90 1007.5
20260506205059 6 323 0.0 9.7 0.00 0.00 0.00 90 1007.5
20260506204559 6 324 3.2 9.7 0.00 0.00 0.00 90 1007.4
20260506204059 6 331 3.2 9.7 0.00 0.00 0.00 90 1007.4
20260506203558 6 304 3.2 8.0 0.00 0.00 0.00 90 1007.4
20260506203056 6 294 1.6 8.0 0.00 0.00 0.00 90 1007.4
20260506202559 6 0 1.6 8.0 0.00 0.00 0.00 90 1007.3
20260506202059 6 300 0.0 8.0 0.00 0.00 0.00 90 1007.2
20260506201622 6 336 3.2 8.0 0.00 0.00 0.00 90 1007.2
20260506201059 6 350 1.6 6.4 0.00 0.00 0.00 90 1007.1
20260506200559 6 326 3.2 6.4 0.00 0.00 0.00 90 1007.2
20260506200058 7 322 1.6 9.7 0.00 0.00 0.00 90 1007.2
20260506195559 7 327 0.0 9.7 0.00 0.00 0.00 90 1007.2
20260506195059 6 327 3.2 9.7 0.00 0.00 0.00 90 1007.2
20260506194557 6 313 3.2 8.0 0.00 0.00 0.00 90 1007.4
20260506194101 6 360 3.2 9.7 0.00 0.00 0.00 90 1007.4
20260506193559 6 315 3.2 9.7 0.00 0.00 0.00 90 1007.3
20260506193058 7 349 3.2 8.0 0.00 0.00 0.00 90 1007.1
20260506192558 7 341 3.2 8.0 0.00 0.00 0.00 90 1007.0
20260506192058 6 0 1.6 6.4 0.00 0.00 0.00 90 1007.0
20260506191601 6 325 3.2 6.4 0.00 0.00 0.00 90 1007.2
20260506191059 6 297 1.6 4.8 0.00 0.00 0.00 90 1007.0
20260506190559 6 0 0.0 3.2 0.00 0.00 0.00 90 1006.8
20260506185559 6 297 1.6 4.8 0.00 0.00 0.00 90 1007.0
20260506185059 6 311 1.6 4.8 0.00 0.00 0.00 90 1007.1
20260506184603 6 360 0.0 6.4 0.00 0.00 0.00 90 1007.0
20260506184059 6 5 1.6 6.4 0.00 0.00 0.00 90 1007.0
20260506183559 6 15 1.6 4.8 0.00 0.00 0.00 90 1006.9
20260506183101 6 78 0.0 3.2 0.00 0.00 0.00 90 1006.8
20260506182558 6 0 1.6 6.4 0.00 0.00 0.00 90 1006.7
20260506182058 6 0 0.0 6.4 0.00 0.00 0.00 90 1006.7
20260506181601 6 0 3.2 6.4 0.00 0.00 0.00 90 1006.9
20260506181059 6 0 0.0 4.8 0.00 0.00 0.00 90 1006.9
20260506180559 6 0 0.0 4.8 0.00 0.00 0.00 90 1007.0
20260506175559 6 38 0.0 4.8 0.00 0.00 0.00 90 1007.0
20260506175058 6 0 0.0 4.8 0.00 0.00 0.00 90 1006.9
20260506174559 6 0 0.0 6.4 0.00 0.00 0.00 90 1007.0
20260506174058 6 0 0.0 6.4 0.00 0.00 0.00 90 1007.0
20260506173559 6 38 0.0 6.4 0.00 0.00 0.00 90 1006.9
20260506173128 6 341 1.6 6.4 0.00 0.00 0.00 90 1007.0
20260506172559 5 51 1.6 6.4 0.00 0.00 0.00 90 1007.0
20260506172059 5 103 3.2 6.4 0.00 0.00 0.00 90 1007.1
20260506171600 5 0 0.0 4.8 0.00 0.00 0.00 90 1007.2
20260506171058 5 0 3.2 6.4 0.00 0.00 0.00 91 1007.2
20260506170602 5 32 1.6 6.4 0.00 0.00 0.00 91 1007.3
20260506170056 5 0 0.0 6.4 0.00 0.00 0.00 90 1007.2
20260506165559 5 73 1.6 6.4 0.00 0.00 0.00 90 1007.2
20260506165059 5 110 0.0 4.8 0.00 0.00 0.00 90 1007.2
20260506164559 5 117 1.6 4.8 0.00 0.00 0.00 90 1007.2
20260506164100 5 119 0.0 6.4 0.00 0.00 0.00 90 1007.4
20260506163558 5 119 1.6 9.7 0.00 0.00 0.00 90 1007.4
20260506163104 5 103 3.2 9.7 0.00 0.00 0.00 90 1007.5
20260506162559 5 121 0.0 4.8 0.00 0.00 0.00 90 1007.6
20260506162058 5 0 0.0 0.0 0.00 0.00 0.00 90 1007.8
20260506161604 5 0 0.0 3.2 0.00 0.00 0.00 90 1007.9
20260506161059 5 0 0.0 4.8 0.00 0.00 0.00 90 1008.0
20260506160559 5 297 0.0 4.8 0.00 0.00 0.00 90 1007.9
20260506155600 5 294 3.2 6.4 0.00 0.00 0.00 90 1007.9
20260506155059 5 176 0.0 6.4 0.00 0.00 0.00 90 1007.9
20260506154605 5 25 1.6 4.8 0.00 0.00 0.00 89 1007.7
20260506154059 5 155 1.6 11.3 0.00 0.00 0.00 90 1007.9
20260506153559 5 155 1.6 11.3 0.00 0.00 0.00 90 1007.7
20260506153101 5 143 1.6 6.4 0.00 0.00 0.00 90 1007.3
20260506152558 5 172 1.6 6.4 0.00 0.00 0.00 90 1007.7
20260506152102 5 109 0.0 6.4 0.00 0.00 0.00 90 1007.5
20260506151558 4 113 0.0 6.4 0.00 0.00 0.00 90 1007.6
20260506151058 4 109 3.2 6.4 0.00 0.00 0.00 90 1007.8
20260506150601 4 36 1.6 6.4 0.00 0.00 0.00 90 1007.8
20260506150057 4 130 1.6 6.4 0.00 0.00 0.00 90 1008.0
20260506145601 4 88 1.6 4.8 0.00 0.00 0.00 90 1007.7
20260506145100 4 0 1.6 4.8 0.00 0.00 0.00 90 1007.9
20260506144600 4 0 1.6 4.8 0.00 0.00 0.00 90 1007.8
20260506144059 4 0 0.0 0.0 0.00 0.00 0.00 89 1008.0
20260506143559 4 0 0.0 1.6 0.00 0.00 0.00 89 1008.0
20260506143059 4 0 0.0 3.2 0.00 0.00 0.00 89 1007.9
20260506142559 4 0 0.0 3.2 0.00 0.00 0.00 89 1008.0
20260506142058 4 360 0.0 1.6 0.00 0.00 0.00 89 1007.9
20260506141558 4 360 0.0 3.2 0.00 0.00 0.00 90 1008.0
20260506141100 4 0 0.0 4.8 0.00 0.00 0.00 89 1007.9
20260506140601 4 0 1.6 6.4 0.00 0.00 0.00 89 1007.9
20260506135558 4 360 1.6 4.8 0.00 0.00 0.00 89 1007.8
20260506135058 4 340 1.6 4.8 0.00 0.00 0.00 89 1007.9
20260506134558 4 341 1.6 4.8 0.00 0.00 0.00 89 1007.8
20260506134058 3 341 3.2 8.0 0.00 0.00 0.00 89 1007.8
20260506133601 3 0 1.6 8.0 0.00 0.00 0.00 89 1007.8
20260506133102 4 352 0.0 8.0 0.00 0.00 0.00 89 1007.7
20260506132558 3 0 1.6 8.0 0.00 0.00 0.00 89 1007.7
20260506132058 3 331 1.6 4.8 0.00 0.00 0.00 89 1007.5
20260506131559 3 44 0.0 3.2 0.00 0.00 0.00 89 1007.6
20260506131058 3 45 0.0 6.4 0.00 0.00 0.00 89 1007.4
20260506130559 3 46 1.6 9.7 0.00 0.00 0.00 88 1007.5
20260506125557 3 116 3.2 11.3 0.00 0.00 0.00 88 1007.5
20260506125058 3 90 3.2 11.3 0.00 0.00 0.00 88 1007.7
20260506124559 3 0 1.6 11.3 0.00 0.00 0.00 88 1007.7
20260506124101 3 126 3.2 11.3 0.00 0.00 0.00 88 1007.8
20260506123558 3 0 0.0 6.4 0.00 0.00 0.00 88 1007.9
20260506123056 3 169 1.6 14.5 0.00 0.00 0.00 88 1007.9
20260506122558 3 59 4.8 14.5 0.00 0.00 0.00 88 1008.0
20260506122059 3 84 1.6 9.7 0.00 0.00 0.00 88 1008.1
20260506121606 3 130 1.6 11.3 0.00 0.00 0.00 89 1008.0
20260506121058 3 38 3.2 12.9 0.00 0.00 0.00 88 1008.0
20260506120558 3 101 4.8 12.9 0.00 0.00 0.00 88 1008.2
20260506120110 3 46 4.8 12.9 0.00 0.00 0.00 88 1008.4
20260506115557 3 360 0.0 3.2 0.00 0.00 0.00 88 1008.6
20260506115058 3 343 0.0 4.8 0.00 0.00 0.00 88 1008.6
20260506114619 3 0 1.6 8.0 0.00 0.00 0.00 88 1008.8
20260506114058 4 0 3.2 11.3 0.00 0.00 0.00 88 1008.8
20260506113558 4 352 0.0 11.3 0.00 0.00 0.00 88 1009.0
20260506113057 4 352 4.8 12.9 0.00 0.00 0.00 88 1009.2
20260506112601 4 327 1.6 12.9 0.00 0.00 0.00 88 1009.4
20260506112058 4 331 4.8 12.9 0.00 0.00 0.00 88 1009.3
20260506111557 4 265 1.6 6.4 0.00 0.00 0.00 88 1009.1
20260506111058 4 300 1.6 12.9 0.00 0.00 0.00 88 1009.0
20260506110601 4 278 1.6 12.9 0.00 0.00 0.00 88 1008.7
20260506110058 4 53 3.2 12.9 0.00 0.00 0.00 88 1008.6
20260506105601 4 0 1.6 9.7 0.00 0.00 0.00 88 1008.5
20260506105058 4 130 0.0 9.7 0.00 0.00 0.00 88 1008.5
20260506104558 4 96 1.6 4.8 0.00 0.00 0.00 88 1008.5
20260506104058 4 86 0.0 4.8 0.00 0.00 0.00 88 1008.5
20260506103557 5 0 0.0 4.8 0.00 0.00 0.00 89 1008.6
20260506103057 5 129 1.6 4.8 0.00 0.00 0.00 89 1008.8
20260506102558 5 130 1.6 4.8 0.00 0.00 0.00 88 1008.8
20260506102059 5 53 1.6 4.8 0.00 0.00 0.00 88 1008.5
20260506101557 5 53 0.0 4.8 0.00 0.00 0.00 88 1008.7
20260506101054 5 0 0.0 6.4 0.00 0.00 0.00 88 1008.7
20260506100558 5 306 0.0 12.9 0.00 0.00 0.00 88 1008.7
20260506100056 5 325 3.2 12.9 0.00 0.00 0.00 88 1008.5
20260506095558 5 337 1.6 11.3 0.00 0.00 0.00 88 1008.5
20260506095057 5 352 3.2 11.3 0.00 0.00 0.00 88 1008.5
20260506094557 5 9 1.6 8.0 0.00 0.00 0.00 88 1008.5
20260506094057 5 290 1.6 6.4 0.00 0.00 0.00 88 1008.6
20260506093558 5 0 1.6 6.4 0.00 0.00 0.00 88 1008.5
20260506093110 5 5 1.6 6.4 0.00 0.00 0.00 88 1008.6
20260506092558 5 0 1.6 6.4 0.00 0.00 0.00 89 1008.8
20260506092058 5 279 1.6 6.4 0.00 0.00 0.00 89 1009.0
20260506091557 5 71 1.6 6.4 0.00 0.00 0.00 88 1009.0
20260506091057 5 259 1.6 12.9 0.00 0.00 0.00 89 1008.8
20260506090557 5 35 3.2 12.9 0.00 0.00 0.00 89 1008.6
20260506090112 6 21 3.2 9.7 0.00 0.00 0.00 89 1008.9
20260506085558 6 336 4.8 9.7 0.00 0.00 0.00 90 1008.8
20260506085058 6 311 1.6 8.0 0.00 0.00 0.00 90 1008.6
20260506084557 6 331 1.6 11.3 0.00 0.00 0.00 90 1008.6
20260506084058 6 42 4.8 11.3 0.00 0.00 0.00 90 1008.9
20260506083600 6 283 1.6 4.8 0.00 0.00 0.00 90 1009.3
20260506083057 6 315 0.0 4.8 0.00 0.00 0.00 90 1008.7
20260506082601 6 315 0.0 4.8 0.00 0.00 0.00 90 1008.7
20260506082058 6 0 1.6 4.8 0.00 0.00 0.00 90 1008.8
20260506081555 6 0 0.0 4.8 0.00 0.00 0.00 90 1008.7
20260506081058 6 309 1.6 4.8 0.00 0.00 0.00 90 1008.9
20260506080558 6 327 0.0 3.2 0.00 0.00 0.00 90 1009.0
20260506080111 6 14 0.0 4.8 0.00 0.00 0.00 90 1008.7
20260506073111 6 305 0.0 4.8 0.00 0.00 0.00 89 1009.0
20260506072601 6 0 1.6 4.8 0.00 0.00 0.00 89 1009.1
20260506072058 6 350 1.6 4.8 0.00 0.00 0.00 90 1009.3
20260506071600 6 0 0.0 6.4 0.00 0.00 0.00 89 1009.1
20260506071058 6 350 1.6 6.4 0.00 0.00 0.00 89 1009.0
20260506070558 6 0 1.6 6.4 0.00 0.00 0.00 89 1009.1
20260506070104 6 327 1.6 6.4 0.00 0.00 0.00 89 1009.3
20260506062057 7 0 4.8 9.7 0.00 0.00 0.00 90 1009.3
20260506061057 7 268 1.6 6.4 0.00 0.00 0.00 90 1009.8
20260506060558 7 269 1.6 6.4 0.00 0.00 0.00 90 1009.6
20260506060112 7 302 1.6 4.8 0.00 0.00 0.00 90 1009.8
20260506051058 7 0 1.6 6.4 0.00 0.00 0.00 89 1009.5
20260506050558 7 0 1.6 6.4 0.00 0.00 0.00 89 1009.8
20260506045058 7 292 1.6 9.7 0.00 0.00 0.00 89 1010.1
20260506044608 7 331 3.2 14.5 0.00 0.00 0.00 89 1010.0
20260506044057 7 266 3.2 14.5 0.00 0.00 0.00 89 1010.5
20260506043600 7 239 3.2 12.9 0.00 0.00 0.00 89 1010.3
20260506043058 7 252 4.8 12.9 0.00 0.00 0.00 89 1010.2
20260506042557 7 261 4.8 12.9 0.00 0.00 0.00 89 1010.0
20260506042058 8 328 3.2 12.9 0.00 0.00 0.00 89 1010.4
20260506041609 8 0 3.2 11.3 0.00 0.00 0.00 89 1010.5
20260506041059 8 254 3.2 9.7 0.00 0.00 0.00 89 1010.3
20260506040557 8 261 1.6 9.7 0.00 0.00 0.00 89 1009.9
20260506040101 8 270 0.0 6.4 0.00 0.00 0.00 89 1009.7
20260506035557 8 360 3.2 6.4 0.00 0.00 0.00 89 1009.9
20260506035058 8 277 3.2 11.3 0.00 0.00 0.00 89 1010.6
20260506034601 8 310 3.2 11.3 0.00 0.00 0.00 89 1010.2
20260506034057 8 258 3.2 9.7 0.00 0.00 0.00 89 1010.1
20260506033557 8 206 3.2 8.0 0.00 0.00 0.00 89 1010.0
20260506033059 8 285 3.2 6.4 0.00 0.00 0.00 89 1009.6
20260506032557 8 254 1.6 6.4 0.00 0.00 0.00 89 1010.2
20260506032058 8 257 1.6 3.2 0.00 0.00 0.00 89 1009.9
20260506031604 8 0 0.0 0.0 0.00 0.00 0.00 89 1009.6